Tracking 28125 objects as of 4-Oct-2023
HD Live streaming from Space Station
objects crossing your sky now

THORAD AGENA D DEB

Track THORAD AGENA D DEB now!
10-day predictions


NORAD ID: 6139
Int'l Code: 1970-025MV
Perigee: 862.9 km
Apogee: 963.8 km
Inclination: 99.0 °
Period: 103.1 minutes
Semi major axis: 7284 km
RCS: 0.0148 m2 (small)
Launch date: April 8, 1970
Source: United States (US)
Launch site: AIR FORCE WESTERN TEST RANGE (AFWTR)

Note: This is SATELLITE DEBRIS
Your satellite tracking list
Your tracking list is empty




NASA's NSSDC Master Catalog

Two Line Element Set (TLE):
1  6139U 70025MV  23277.13156993  .00002625  00000-0  18936-2 0  9995
2  6139  98.9793 158.1516 0069238 183.9479 176.1146 13.96427432690925
Source of the keplerian elements: AFSPC